This is the latest recevied weather packets stored in our database for station/object KD5HIA. If no packets are shown the sender has not sent any weather packets the latest 10 day(s).
| Time | Temp. | Humidity | Pressure | Rain* | Wind** | Luminosity | Snow |
|---|---|---|---|---|---|---|---|
| 1778114416 | 21.11° C | 58% | 1012.8 hPa | 0 mm | - | 136 W/m² | - |
| 1778113817 | 21.11° C | 58% | 1012.7 hPa | 0 mm | - | 60 W/m² | - |
| 1778113217 | 21.11° C | 57% | 1012.6 hPa | 0 mm | - | 66 W/m² | - |
| 1778112616 | 21.11° C | 56% | 1012.5 hPa | 0 mm | - | 87 W/m² | - |
| 1778112016 | 21.67° C | 56% | 1012.6 hPa | 0 mm | - | 92 W/m² | - |
| 1778111416 | 21.67° C | 56% | 1012.7 hPa | 0 mm | - | 133 W/m² | - |
| 1778110816 | 21.67° C | 56% | 1012.6 hPa | 0 mm | - | 159 W/m² | - |
| 1778110217 | 21.67° C | 57% | 1012.4 hPa | 0 mm | - | 153 W/m² | - |
| 1778109616 | 22.22° C | 57% | 1012.7 hPa | 0 mm | - | 158 W/m² | - |
| 1778109017 | 22.22° C | 56% | 1012.6 hPa | 0 mm | - | 229 W/m² | - |
| 1778108416 | 22.22° C | 56% | 1012.5 hPa | 0 mm | - | 295 W/m² | - |
| 1778107816 | 22.22° C | 56% | 1012.3 hPa | 0 mm | - | 370 W/m² | - |
| 1778107217 | 22.22° C | 54% | 1012.3 hPa | 0 mm | - | 554 W/m² | - |
| 1778106617 | 22.22° C | 56% | 1012.2 hPa | 0 mm | - | 580 W/m² | - |
| 1778106016 | 22.22° C | 54% | 1012.3 hPa | 0 mm | - | 599 W/m² | - |
| 1778105416 | 22.22° C | 55% | 1012.3 hPa | 0 mm | - | 408 W/m² | - |
| 1778104816 | 22.78° C | 56% | 1012.5 hPa | 0 mm | - | 716 W/m² | - |
| 1778104216 | 21.67° C | 59% | 1012.4 hPa | 0 mm | - | 430 W/m² | - |
| 1778103616 | 21.11° C | 56% | 1012.4 hPa | 0 mm | - | 610 W/m² | - |
| 1778103016 | 21.11° C | 57% | 1012.6 hPa | 0 mm | - | 236 W/m² | - |
| 1778102416 | 21.67° C | 57% | 1012.7 hPa | 0 mm | - | 786 W/m² | - |
| 1778101816 | 21.11° C | 59% | 1012.8 hPa | 0 mm | - | 864 W/m² | - |
| 1778101216 | 20.56° C | 59% | 1012.5 hPa | 0 mm | - | 832 W/m² | - |
| 1778100616 | 20.56° C | 61% | 1012.8 hPa | 0 mm | - | 835 W/m² | - |
| 1778100016 | 20° C | 61% | 1012.9 hPa | 0 mm | - | 879 W/m² | - |
* Rain latest hour (hover to see other rain measurements)
** Current wind speed in m/s (hover to see current wind gust speed)